Lone Rock, WI

6:20 AM CST on December 15, 2017 (GMT -0600)
Tri-County Regional

Weather History for KLNR - July, 2013

Change the Weather History Date:

Friday, July 26, 2013

  Actual Average Record
Temperature  
Mean Temperature 69 °F -  
Max Temperature 79 °F 80 °F 95 °F (1997)
Min Temperature 60 °F 59 °F 50 °F (2004)
Cooling Degree Days 4    
Growing Degree Days 19 (Base 50)    
Moisture  
Dew Point 61 °F    
Average Humidity 77    
Maximum Humidity 100    
Minimum Humidity 47    
Precipitation  
Precipitation 0.02 in - - ()
Sea Level Pressure  
Sea Level Pressure 29.91 in    
Wind  
Wind Speed 4 mph (West)    
Max Wind Speed 16 mph    
Max Gust Speed 25 mph    
Visibility 9 miles    
Events Rain , Thunderstorm    
Averages and records for this station are not official NWS values.
T = Trace of Precipitation, MM = Missing Value Source: NWS Daily Summary

Daily Weather History Graph

Daily Weather History Graph

Search for Another Location

Airport or City:

Trip Planner

Search our weather history database for the weather conditions in past years. The results will help you decide how hot, cold, wet, or windy it might be!

Date:

Astronomy

Jul. 26, 2013 Rise Set
Actual Time 5:45 AM CDT 8:28 PM CDT
Civil Twilight 5:12 AM CDT 9:01 PM CDT
Nautical Twilight 4:30 AM CDT 9:43 PM CDT
Astronomical Twilight 3:42 AM CDT 10:30 PM CDT
Moon 10:32 PM CDT (7/26) 10:30 AM CDT (7/26)
Length of Visible Light 15h 49m
Length of Day
14h 43m
Waning Gibbous, 80% of the Moon is Illuminated
Jul 26
Waning Gibbous
Jul 29
Last Quarter
Aug 6
New
Aug 14
First Quarter
Aug 20
Full

Hourly Weather History & Observations

Time (CDT) Temp. Dew Point Humidity Pressure Visibility Wind Dir Wind Speed Gust Speed Precip Events Conditions
12:56 AM 66.0 °F 62.1 °F 87% 29.94 in 10.0 mi Calm Calm - N/A   Clear
1:56 AM 66.0 °F 63.0 °F 90% 29.93 in 10.0 mi Calm Calm - N/A   Clear
2:56 AM 63.0 °F 62.1 °F 97% 29.91 in 7.0 mi Calm Calm - N/A   Clear
3:37 AM 62.6 °F 60.8 °F 94% 29.93 in 1.8 mi SSW 3.5 mph - N/A   Clear
3:46 AM 60.8 °F 60.8 °F 100% 29.93 in 3.0 mi SSW 3.5 mph - N/A   Clear
3:56 AM 61.0 °F 60.1 °F 97% 29.91 in 4.0 mi Calm Calm - N/A   Clear
4:56 AM 64.0 °F 62.1 °F 93% 29.92 in 10.0 mi Calm Calm - N/A   Mostly Cloudy
5:56 AM 64.9 °F 62.1 °F 90% 29.93 in 10.0 mi Calm Calm - N/A   Overcast
6:56 AM 64.9 °F 63.0 °F 93% 29.93 in 8.0 mi Calm Calm - N/A   Overcast
7:56 AM 64.9 °F 63.0 °F 93% 29.94 in 8.0 mi Calm Calm - N/A   Overcast
8:12 AM 66.2 °F 62.6 °F 88% 29.95 in 10.0 mi SSE 3.5 mph - N/A   Overcast
8:56 AM 66.9 °F 63.0 °F 87% 29.93 in 10.0 mi Calm Calm - N/A   Overcast
9:25 AM 68.0 °F 62.6 °F 83% 29.94 in 10.0 mi Calm Calm - N/A   Overcast
9:56 AM 69.1 °F 63.0 °F 81% 29.91 in 10.0 mi Calm Calm - N/A   Overcast
10:54 AM 71.6 °F 64.4 °F 78% 29.91 in 10.0 mi WSW 5.8 mph - N/A   Overcast
10:56 AM 72.0 °F 64.9 °F 78% 29.89 in 10.0 mi WSW 6.9 mph - N/A   Overcast
11:56 AM 75.0 °F 66.0 °F 73% 29.88 in 10.0 mi WSW 5.8 mph - N/A   Mostly Cloudy
12:56 PM 78.1 °F 66.9 °F 68% 29.86 in 10.0 mi West 6.9 mph - 0.02 in   Clear
1:44 PM 77.0 °F 64.4 °F 65% 29.88 in 10.0 mi West 10.4 mph - N/A Thunderstorm Thunderstorm
1:56 PM 71.1 °F 61.0 °F 70% 29.86 in 9.0 mi WNW 12.7 mph 24.2 mph 0.00 in Rain , Thunderstorm Light Thunderstorms and Rain
2:12 PM 73.4 °F 62.6 °F 69% 29.87 in 10.0 mi WNW 9.2 mph - 0.00 in   Scattered Clouds
2:56 PM 78.1 °F 66.0 °F 66% 29.84 in 10.0 mi West 12.7 mph - 0.00 in   Scattered Clouds
3:56 PM 77.0 °F 55.0 °F 47% 29.85 in 10.0 mi WNW 12.7 mph 25.3 mph N/A   Partly Cloudy
4:56 PM 77.0 °F 55.9 °F 48% 29.86 in 10.0 mi WNW 12.7 mph 23.0 mph N/A   Partly Cloudy
5:56 PM 73.9 °F 55.0 °F 52% 29.88 in 10.0 mi WNW 16.1 mph 23.0 mph N/A   Scattered Clouds
6:56 PM 73.0 °F 54.0 °F 51% 29.90 in 10.0 mi NW 9.2 mph - N/A   Clear
7:56 PM 70.0 °F 55.0 °F 59% 29.91 in 10.0 mi WNW 6.9 mph - N/A   Clear
8:56 PM 66.9 °F 55.0 °F 66% 29.91 in 10.0 mi NW 10.4 mph - N/A   Clear
9:56 PM 64.9 °F 55.0 °F 70% 29.93 in 10.0 mi NNW 12.7 mph 18.4 mph N/A   Clear
10:56 PM 63.0 °F 54.0 °F 72% 29.93 in 10.0 mi NW 12.7 mph - N/A   Scattered Clouds
11:56 PM 62.1 °F 53.1 °F 72% 29.93 in 10.0 mi NNW 11.5 mph 21.9 mph N/A   Scattered Clouds